Theta_e
308 303 304 306 309 314 316 317 318 317 318 319 318 316 316 316 317 316 314 313 313 319 320 325 328 329 331 331 331 330 329 327 326 324 323 322 320 321 322 322 324 327 328 327
309 307 305 306 309 311 313 315 317 318 318 318 319 319 318 318 318 315 315 315 316 316 320 326 328 327 330 330 330 329 327 326 325 323 322 321 321 319 320 320 321 324 327 326
309 313 311 309 310 310 313 314 314 316 318 317 320 320 319 319 317 315 315 317 317 316 320 327 327 326 328 328 328 327 326 325 324 323 322 321 319 318 317 317 320 322 324 326
315 317 319 319 319 316 315 313 314 315 323 323 321 327 322 320 320 320 315 313 315 315 320 327 327 325 327 327 327 326 326 325 323 322 321 320 318 317 316 317 319 320 322 323
316 319 318 319 320 317 317 313 315 318 323 323 323 326 323 320 321 320 320 317 315 311 320 327 327 326 326 326 325 325 325 324 323 322 321 319 317 318 317 316 318 319 320 320
313 313 315 315 315 317 317 317 320 320 324 326 322 325 324 322 321 321 320 317 316 314 321 327 327 326 324 325 324 324 324 323 322 321 320 319 317 317 316 316 317 318 318 319
312 312 312 315 316 316 319 323 327 327 328 323 322 325 323 321 320 320 320 318 317 316 326 328 327 325 324 323 323 323 323 322 322 321 320 319 319 317 316 316 316 316 316 317
310 310 311 313 314 317 316 323 329 326 327 325 321 323 321 320 320 320 320 318 316 316 328 329 327 325 324 323 323 323 322 322 322 321 320 319 319 318 316 316 316 317 316 316
309 314 314 313 315 315 318 322 320 325 325 327 324 324 323 322 322 321 319 316 315 320 329 329 328 326 325 323 322 322 322 322 322 322 320 320 319 318 316 315 315 316 316 315
308 311 311 315 315 316 317 319 325 324 327 331 327 327 332 328 326 320 319 319 318 326 329 330 329 327 326 323 322 322 322 321 322 322 321 320 319 319 317 316 315 314 315 316
310 309 312 311 316 319 320 322 320 323 325 329 331 335 328 328 327 325 323 319 319 321 328 329 329 328 326 324 322 322 321 321 321 322 322 321 320 318 318 317 315 313 314 314
308 312 311 311 310 316 318 321 321 328 326 327 330 328 328 326 324 323 322 320 317 315 317 325 328 327 326 324 322 321 321 321 321 322 322 321 320 319 317 316 316 314 313 313
307 312 317 315 316 316 318 318 319 322 322 326 328 328 326 325 324 324 324 318 319 319 318 322 325 326 326 324 323 322 322 321 321 321 322 322 322 321 319 317 317 316 314 313
308 310 315 319 318 318 319 317 319 321 325 322 326 325 326 324 324 325 324 321 318 320 320 319 318 323 325 326 325 323 323 322 322 321 321 321 321 322 321 320 319 317 316 315
309 311 313 313 312 317 319 318 318 322 322 327 325 325 324 324 324 325 324 320 320 321 322 322 321 320 320 321 322 326 324 323 323 322 321 321 321 321 322 322 321 320 318 317
308 309 310 311 311 312 311 318 319 319 321 323 323 324 321 322 324 322 323 321 320 321 322 322 321 319 318 318 319 320 324 324 323 323 322 322 321 321 321 321 322 322 321 320
309 310 311 312 311 308 313 317 320 316 320 318 321 321 322 322 322 321 319 318 318 319 322 320 317 315 313 313 316 316 317 319 324 324 323 323 323 322 321 321 321 322 322 322
308 308 309 311 310 309 312 311 315 319 321 317 319 321 320 318 317 317 317 319 319 319 316 312 310 308 307 308 310 310 310 312 315 317 318 319 322 323 323 322 321 321 321 321
307 307 307 310 312 311 308 310 313 317 320 319 319 319 317 318 316 315 312 311 313 311 308 306 304 303 302 302 305 307 306 306 308 308 308 309 309 313 319 324 324 323 322 322
306 306 307 308 312 311 310 312 313 316 321 317 316 317 317 316 318 315 308 306 305 304 304 301 300 298 298 298 301 302 302 302 303 303 303 302 302 305 307 310 317 324 324 324
309 307 309 308 309 311 312 314 315 317 318 314 313 313 314 314 313 308 305 302 301 299 299 298 297 296 294 294 297 298 298 298 299 299 297 297 296 298 300 305 308 310 316 323
311 311 310 308 311 311 313 315 318 314 311 311 311 310 309 309 306 304 301 298 297 295 295 295 295 293 292 291 292 294 294 295 296 295 293 292 291 292 293 297 302 304 303 302
314 310 310 308 308 311 310 310 309 309 309 308 308 307 306 305 302 300 298 295 293 292 292 292 292 291 289 289 289 290 290 293 294 292 290 288 287 288 288 288 290 295 299 295
308 309 312 312 312 309 310 307 307 306 306 303 302 301 302 302 300 297 295 293 291 290 290 289 289 288 287 287 287 287 289 291 291 290 288 286 286 285 285 286 286 286 289 290
309 310 308 313 310 308 306 305 305 303 300 299 297 295 295 296 296 293 291 290 288 288 287 286 286 286 285 285 286 286 287 289 290 288 288 286 285 285 284 284 285 285 285 286
302 303 307 306 303 305 303 301 301 300 298 295 294 292 290 290 290 289 287 286 285 285 284 284 284 284 284 284 284 285 286 287 287 286 286 285 285 284 284 284 284 284 284 284
Wind_Speed
1 3 7 8 6 4 4 7 9 6 5 7 13 13 15 16 17 16 18 11 15 16 14 22 30 31 33 33 35 35 34 30 27 22 17 13 12 14 17 19 24 26 27 38
3 7 6 7 6 7 6 3 7 5 5 12 16 25 19 23 20 17 17 11 15 12 9 13 25 28 33 34 35 36 35 32 29 22 20 15 16 13 16 16 19 24 29 39
6 3 5 5 5 8 6 5 3 5 14 11 5 22 21 24 13 13 10 11 12 13 13 16 16 26 28 31 36 37 35 32 28 23 20 15 15 12 13 13 18 25 28 35
6 2 3 1 3 2 12 6 5 7 6 5 2 11 17 16 20 19 11 10 10 10 12 19 19 19 30 30 35 37 36 33 29 26 25 24 17 13 12 17 16 19 24 30
4 4 2 1 3 6 6 4 7 1 8 9 14 7 13 12 18 19 15 10 8 10 17 20 23 29 31 34 35 37 36 33 29 27 27 27 20 17 19 17 21 22 21 24
5 3 6 8 3 1 2 4 5 6 8 10 12 11 11 13 16 17 16 9 10 8 18 23 25 27 25 28 33 36 35 33 30 29 29 29 25 21 23 20 21 22 22 26
2 5 4 5 4 3 5 5 3 5 6 11 5 13 17 12 16 15 17 14 13 11 15 18 20 17 25 29 30 32 33 30 32 31 30 29 28 27 29 29 25 23 23 25
4 3 6 6 7 4 6 5 3 6 4 3 10 7 5 21 21 22 22 15 17 15 16 21 22 20 27 30 31 31 32 30 31 31 31 30 28 30 30 32 30 29 29 27
5 4 1 5 3 7 4 4 5 5 2 1 4 5 5 7 12 13 18 10 6 14 17 18 18 18 27 29 33 34 31 30 32 28 30 31 30 29 30 32 31 33 29 28
2 2 4 4 4 5 8 2 2 3 3 3 4 3 3 10 9 13 17 10 2 6 15 16 17 18 28 29 30 30 32 32 33 28 29 30 29 33 30 30 35 33 34 34
2 3 4 2 5 5 3 3 4 4 3 1 3 2 6 11 11 14 16 18 7 6 7 13 14 17 23 25 27 28 27 28 30 31 29 28 30 31 33 33 35 37 37 37
2 1 4 9 11 6 8 4 4 3 3 3 1 3 6 12 15 16 16 20 10 8 6 10 12 12 19 23 24 28 28 29 32 32 31 29 30 31 31 34 36 35 38 39
2 3 4 6 5 6 3 8 11 8 2 4 4 2 7 14 17 17 14 12 9 14 19 10 8 6 7 15 23 27 29 29 30 32 31 32 31 32 31 32 35 36 37 37
1 3 3 4 7 4 6 3 12 10 3 3 6 6 4 4 13 13 16 13 6 14 18 19 15 8 7 10 9 10 13 19 27 30 32 32 34 31 33 32 36 38 39 39
3 1 2 7 14 6 6 6 7 4 12 4 2 4 5 3 4 7 15 12 12 13 17 16 14 12 12 17 14 13 22 22 21 26 29 32 34 36 34 33 34 35 37 38
4 2 3 4 8 10 14 14 11 5 11 11 16 14 7 3 6 2 12 13 9 11 15 16 15 14 12 15 15 17 6 15 23 23 29 28 31 32 35 35 34 36 36 35
2 3 4 3 6 12 8 7 15 7 12 7 2 7 1 9 9 5 4 7 7 11 12 15 15 12 15 17 18 21 22 21 14 26 17 19 23 25 28 27 31 34 36 36
3 2 2 3 3 5 7 13 9 5 4 15 3 12 16 15 14 17 15 10 15 14 15 15 11 14 17 19 23 23 24 25 24 21 15 8 9 22 29 30 35 37 34 37
9 4 1 2 3 10 14 2 3 10 5 8 10 5 15 12 13 17 15 15 15 14 11 14 16 17 18 22 20 20 24 23 21 21 19 16 15 13 11 25 31 33 32 34
9 5 4 1 3 4 5 6 15 3 3 4 8 5 5 5 7 6 12 13 15 17 18 17 18 19 22 24 20 21 21 22 22 21 18 16 15 13 12 10 11 26 30 34
3 1 12 7 3 6 5 15 11 8 3 7 10 9 9 7 6 10 12 14 17 18 20 19 21 22 21 22 19 21 20 22 20 18 18 18 18 14 15 11 10 11 10 24
6 5 4 3 4 9 14 5 4 4 11 12 11 10 12 11 10 11 13 14 14 13 18 18 16 19 21 23 21 19 20 18 18 18 18 19 20 19 19 18 16 15 15 13
4 5 3 6 4 6 10 12 13 10 12 12 11 9 11 10 11 12 11 13 13 16 15 16 17 16 19 21 20 18 20 19 14 15 17 21 25 25 23 24 23 18 17 16
3 4 1 3 8 11 12 13 14 14 12 13 13 12 11 10 10 11 11 10 10 13 15 16 16 17 17 18 18 16 18 17 13 13 16 18 20 23 28 26 26 24 19 14
5 3 4 5 9 10 11 11 9 12 12 13 14 12 14 12 12 11 10 10 11 14 16 17 17 16 17 18 20 22 19 14 12 14 14 15 16 19 25 35 32 28 31 20
6 5 3 2 6 5 4 8 9 9 10 11 10 12 15 13 12 11 11 13 14 16 17 18 18 18 19 20 21 22 20 14 11 14 14 14 14 16 18 23 33 41 39 37
Wind_Direction
219 159 216 198 217 204 285 276 278 278 301 329 311 296 291 296 296 267 245 240 219 205 204 170 164 169 169 175 176 177 175 179 182 181 177 193 198 217 213 224 219 213 192 185
321 248 233 216 235 255 247 270 281 288 318 350 327 296 301 294 283 273 229 213 202 206 148 164 162 162 167 168 173 174 177 178 183 185 188 194 201 210 223 224 224 217 210 197
180 234 151 206 253 251 217 220 241 292 330 316 330 292 290 281 293 276 238 206 218 204 171 164 167 167 160 167 172 173 176 176 181 182 185 186 189 197 193 195 210 214 214 199
224 280 148 6 255 269 267 179 242 263 351 257 70 280 283 280 286 285 257 208 218 198 186 170 168 164 170 173 173 174 178 180 179 179 181 180 177 177 182 175 170 170 181 189
231 162 105 148 213 265 271 194 230 277 262 272 246 254 271 270 275 276 271 266 233 203 180 177 176 175 172 166 170 172 177 179 178 181 186 179 177 189 184 171 164 163 156 151
216 154 163 192 149 188 314 241 308 248 246 248 221 212 250 259 250 270 274 262 250 217 193 180 177 163 157 161 166 172 175 177 181 183 185 180 182 179 177 177 167 168 170 170
263 229 222 161 183 136 164 165 179 216 206 236 190 206 242 260 245 261 271 264 254 184 184 165 158 159 157 164 167 170 175 175 179 181 187 186 192 188 185 186 180 175 176 180
171 319 172 190 197 175 182 176 227 217 219 210 204 241 244 227 233 259 267 257 279 189 172 171 166 164 164 168 170 171 175 173 177 179 188 192 195 197 196 192 189 191 189 191
179 256 122 148 137 175 167 206 256 306 297 106 255 285 275 35 4 314 263 256 242 171 160 168 163 165 165 170 175 175 176 176 180 181 183 189 195 203 198 200 199 198 195 197
230 282 249 166 135 205 229 18 191 203 233 225 241 240 54 1 348 11 19 330 174 143 157 164 167 168 177 175 174 176 179 179 179 184 186 188 194 204 204 201 205 201 200 203
355 150 291 80 204 163 199 222 223 270 253 247 310 126 37 330 337 354 356 348 31 107 155 169 175 172 168 168 172 176 180 179 179 184 188 189 195 199 210 210 211 209 207 207
136 210 247 239 250 173 182 223 217 259 197 186 80 276 18 343 338 358 355 0 353 41 68 172 165 157 161 165 172 179 183 186 186 186 188 193 198 200 205 210 215 212 211 211
216 70 322 325 41 100 257 257 227 243 292 244 176 238 47 339 341 346 354 2 359 46 54 71 86 118 146 170 178 183 188 191 190 190 190 193 197 201 204 207 213 215 216 214
32 133 181 317 309 187 249 237 290 230 226 208 243 296 53 37 320 329 327 327 357 57 61 62 66 66 93 130 179 210 214 205 194 194 197 200 203 201 204 208 213 215 216 216
106 91 277 261 303 216 244 277 287 262 244 246 28 226 322 211 237 308 313 328 70 61 64 67 61 56 58 53 43 216 219 217 203 202 204 208 208 209 207 207 212 215 216 217
10 267 289 266 298 292 285 237 241 254 269 238 261 268 272 296 140 260 276 293 85 74 90 84 64 53 39 37 27 13 48 217 216 213 217 216 212 212 213 212 211 212 215 215
39 355 348 252 351 317 288 225 210 218 186 165 220 223 59 218 149 186 276 317 29 69 74 69 70 56 39 25 29 32 31 25 228 222 222 225 226 227 229 227 219 218 217 217
186 175 228 249 317 264 257 319 235 135 294 207 167 139 119 95 72 57 32 51 56 60 58 60 55 51 41 35 36 32 32 30 33 40 36 16 278 231 225 222 224 228 223 223
201 168 300 213 220 307 300 10 201 176 11 54 97 158 123 112 70 46 43 45 58 57 55 56 53 48 38 37 39 44 35 29 26 20 14 6 352 329 295 235 229 229 224 226
209 177 166 133 233 252 262 359 327 116 103 70 112 84 98 128 87 76 67 48 50 42 45 44 41 41 34 23 34 44 36 26 16 8 6 2 2 1 341 338 304 252 231 229
109 187 212 219 238 283 320 321 315 201 154 77 82 81 78 82 88 100 81 56 51 46 37 36 38 38 27 18 29 39 30 20 10 7 6 9 9 6 7 2 351 335 294 244
181 179 195 180 220 248 347 328 24 69 80 85 75 79 81 80 80 79 75 63 50 44 35 35 39 37 24 19 22 28 26 6 10 17 18 19 19 18 17 19 31 34 24 33
223 186 207 180 187 71 47 73 55 57 80 67 76 70 74 73 68 61 58 56 48 44 35 33 40 36 24 20 22 20 3 5 17 33 30 27 32 33 33 23 17 38 53 62
233 328 326 154 121 91 65 51 53 54 44 66 49 51 67 80 81 69 56 47 44 38 37 30 33 31 24 17 19 16 10 16 29 45 47 40 42 41 42 41 34 29 25 59
343 2 326 99 90 79 50 50 41 53 43 55 59 48 46 52 66 66 55 44 41 37 35 34 32 27 20 14 16 18 20 31 42 50 53 57 56 57 58 57 50 50 51 60
356 349 350 48 314 83 63 42 54 55 55 52 54 52 49 48 50 56 49 39 37 36 32 31 27 24 19 18 19 21 25 33 56 61 56 55 61 69 73 77 71 66 68 70